Regional Weather Roundup
Issued by NWS

Home | Current Version | Previous Version | Graphics & Text | Print | Product List | Glossary On
Versions: 1 2 3 4 5 6 7 8 9 10 11 12 13 14 15 16 17 18 19 20 21 22 23 24 25 26 27 28 29 30 31 32 33 34 35 36 37 38 39 40 41 42 43 44 45 46 47 48 49 50
000
ASUS43 KBIS 311702
RWRND

NORTH DAKOTA REGIONAL WEATHER ROUNDUP
NATIONAL WEATHER SERVICE BISMARCK ND
1200 PM CDT TUE MAY 31 2016

NOTE: "FAIR" INDICATES FEW OR NO CLOUDS BELOW 12,000 FEET WITH NO
SIGNIFICANT WEATHER AND/OR OBSTRUCTIONS TO VISIBILITY.


NDZ001>003-009>011-017-311800-
NORTHWEST NORTH DAKOTA

CITY           SKY/WX    TMP DP  RH WIND       PRES   REMARKS
WILLISTON      LGT RAIN  54  48  80 N37G45    29.75R
MINOT          MOSUNNY   64  49  57 SW15G23   29.61S
MINOT AFB      MOSUNNY   61  51  68 SW12      29.58F
$$

NDZ018>021-031>035-040>046-311800-
SOUTHWEST NORTH DAKOTA

CITY           SKY/WX    TMP DP  RH WIND       PRES   REMARKS
BISMARCK       CLOUDY    60  47  61 W13G21    29.71F
DICKINSON      RAIN      49  47  93 SW18G29   29.67F FOG
GARRISON         N/A     56  49  77 SW15      29.63F
HETTINGER ARPT LGT RAIN  49  46  90 W24G31    29.79F
$$

NDZ004>008-012>016-024-026-027-054-311800-
NORTHEAST NORTH DAKOTA

CITY           SKY/WX    TMP DP  RH WIND       PRES   REMARKS
GRAND FORKS    CLOUDY    64  56  75 SW17      29.69R
GRND FRKS AFB  CLOUDY    64  56  74 SW16G22   29.69R
DEVILS LAKE    CLOUDY    56  52  86 SW14      29.68R
$$

NDZ022-023-025-028>030-036>039-047>053-311800-
SOUTHEAST NORTH DAKOTA

CITY           SKY/WX    TMP DP  RH WIND       PRES   REMARKS
FARGO          MOSUNNY   66  49  54 SW16      29.75S
JAMESTOWN      PTSUNNY   59  46  62 SW14      29.73R
$$





USA.gov is the U.S. government's official web portal to all federal, state and local government web resources and services.